Time,TemperatureF,DewpointF,PressureIn,WindDirection,WindDirectionDegrees,WindSpeedMPH,WindSpeedGustMPH,Humidity,HourlyPrecipIn,Conditions,Clouds,dailyrainin,SoftwareType,DateUTC
2013-07-02 00:11:00,74.0,73.0,29.93,SSE,156,2.0,9.0,96,0.02,,,1.25,,2013-07-02 04:11:00,
2013-07-02 00:22:00,74.0,73.0,29.93,SSE,156,0.0,6.0,96,0.02,,,1.25,,2013-07-02 04:22:00,
2013-07-02 00:32:00,74.0,73.0,29.93,SSE,156,0.0,6.0,96,0.02,,,1.25,,2013-07-02 04:32:00,
2013-07-02 00:42:00,73.0,72.0,29.93,SSE,156,1.0,6.0,96,0.01,,,1.25,,2013-07-02 04:42:00,
2013-07-02 00:53:00,73.0,72.0,29.93,SSE,153,6.0,11.0,96,0.01,,,1.25,,2013-07-02 04:53:00,
2013-07-02 01:02:00,73.0,72.0,29.93,South,182,1.0,11.0,96,0.01,,,1.25,,2013-07-02 05:02:00,
2013-07-02 01:22:00,73.0,72.0,29.93,South,176,5.0,10.0,96,0.00,,,1.25,,2013-07-02 05:22:00,
2013-07-02 01:32:00,73.0,72.0,29.94,South,185,1.0,10.0,96,0.00,,,1.25,,2013-07-02 05:32:00,
2013-07-02 01:43:00,73.0,72.0,29.94,SSE,149,0.0,7.0,96,0.00,,,1.25,,2013-07-02 05:43:00,
2013-07-02 01:53:00,73.0,72.0,29.95,SSE,158,2.0,8.0,96,0.00,,,1.25,,2013-07-02 05:53:00,
2013-07-02 02:01:00,73.0,72.0,29.95,SSE,151,2.0,5.0,96,0.00,,,1.25,,2013-07-02 06:01:00,
2013-07-02 02:34:00,73.0,72.0,29.95,SSE,155,1.0,9.0,96,0.00,,,1.25,,2013-07-02 06:34:00,
2013-07-02 02:43:00,73.0,72.0,29.95,SSE,153,2.0,6.0,96,0.00,,,1.25,,2013-07-02 06:43:00,
2013-07-02 02:53:00,73.0,72.0,29.95,SE,138,0.0,7.0,96,0.00,,,1.25,,2013-07-02 06:53:00,
2013-07-02 03:01:00,73.0,72.0,29.95,SW,228,0.0,9.0,96,0.00,,,1.25,,2013-07-02 07:01:00,
2013-07-02 03:22:00,73.0,72.0,29.95,SSE,166,0.0,7.0,96,0.00,,,1.25,,2013-07-02 07:22:00,
2013-07-02 03:34:00,73.0,72.0,29.95,SSE,152,1.0,8.0,96,0.00,,,1.25,,2013-07-02 07:34:00,
2013-07-02 03:44:00,73.0,72.0,29.96,SSE,158,0.0,5.0,96,0.00,,,1.25,,2013-07-02 07:44:00,
2013-07-02 03:53:00,73.0,72.0,29.96,SSE,148,2.0,7.0,96,0.00,,,1.25,,2013-07-02 07:53:00,
2013-07-02 04:02:00,73.0,72.0,29.96,SSE,156,0.0,5.0,96,0.00,,,1.25,,2013-07-02 08:02:00,
2013-07-02 04:22:00,73.0,72.0,29.97,SSE,167,0.0,7.0,97,0.00,,,1.25,,2013-07-02 08:22:00,
2013-07-02 04:33:00,73.0,72.0,29.97,SSE,159,2.0,5.0,97,0.00,,,1.25,,2013-07-02 08:33:00,
2013-07-02 04:53:00,73.0,72.0,29.97,SSE,161,1.0,9.0,96,0.00,,,1.25,,2013-07-02 08:53:00,
2013-07-02 05:11:00,73.0,72.0,29.98,SSE,156,2.0,6.0,97,0.00,,,1.25,,2013-07-02 09:11:00,
2013-07-02 05:52:00,73.0,72.0,29.99,SSE,153,0.0,6.0,97,0.00,,,1.25,,2013-07-02 09:52:00,
2013-07-02 06:01:00,73.0,72.0,30.00,SSE,155,0.0,6.0,97,0.00,,,1.25,,2013-07-02 10:01:00,
2013-07-02 06:11:00,73.0,72.0,30.00,SSE,159,2.0,6.0,97,0.00,,,1.25,,2013-07-02 10:11:00,
2013-07-02 06:33:00,73.0,72.0,30.01,SE,143,1.0,5.0,97,0.00,,,1.25,,2013-07-02 10:33:00,
2013-07-02 06:44:00,73.0,72.0,30.01,East,95,0.0,1.0,97,0.00,,,1.25,,2013-07-02 10:44:00,
2013-07-02 06:52:00,73.0,72.0,30.01,SSE,159,0.0,4.0,97,0.00,,,1.25,,2013-07-02 10:52:00,
2013-07-02 07:01:00,73.0,72.0,30.01,SSE,159,0.0,4.0,97,0.00,,,1.25,,2013-07-02 11:01:00,
2013-07-02 07:52:00,73.0,72.0,30.03,SSE,155,0.0,2.0,97,0.00,,,1.24,,2013-07-02 11:52:00,
2013-07-02 08:01:00,73.0,72.0,30.03,SSE,162,0.0,3.0,97,0.00,,,1.24,,2013-07-02 12:01:00,
2013-07-02 08:23:00,74.0,73.0,30.03,SSE,166,1.0,4.0,97,0.00,,,0.60,,2013-07-02 12:23:00,
2013-07-02 08:52:00,74.0,73.0,30.04,SSE,159,2.0,7.0,96,0.00,,,0.60,,2013-07-02 12:52:00,
2013-07-02 09:34:00,75.0,73.0,30.05,SSE,163,3.0,9.0,95,0.00,,,0.59,,2013-07-02 13:34:00,
2013-07-02 09:43:00,75.0,73.0,30.05,South,175,0.0,7.0,94,0.00,,,0.59,,2013-07-02 13:43:00,
2013-07-02 09:52:00,75.0,73.0,30.05,South,176,0.0,10.0,94,0.00,,,0.59,,2013-07-02 13:52:00,
2013-07-02 10:02:00,76.0,74.0,30.05,SSE,167,1.0,5.0,93,0.00,,,0.59,,2013-07-02 14:02:00,
2013-07-02 10:43:00,78.0,73.0,30.05,SSW,202,1.0,11.0,86,0.00,,,0.59,,2013-07-02 14:43:00,
2013-07-02 10:53:00,77.0,72.0,30.06,ESE,106,4.0,13.0,86,0.05,,,0.64,,2013-07-02 14:53:00,
2013-07-02 11:02:00,72.0,69.0,30.07,SSE,159,0.0,9.0,91,0.24,,,0.83,,2013-07-02 15:02:00,
2013-07-02 11:12:00,72.0,70.0,30.07,South,172,2.0,6.0,93,0.24,,,0.83,,2013-07-02 15:12:00,
2013-07-02 11:33:00,72.0,71.0,30.08,SSW,202,1.0,6.0,96,0.27,,,0.86,,2013-07-02 15:33:00,
2013-07-02 11:44:00,71.0,70.0,30.08,SE,145,2.0,7.0,96,0.30,,,0.89,,2013-07-02 15:44:00,
2013-07-02 11:53:00,71.0,70.0,30.09,SSE,159,1.0,6.0,96,0.27,,,0.90,,2013-07-02 15:53:00,
2013-07-02 12:01:00,71.0,70.0,30.09,SSE,151,0.0,10.0,96,0.10,,,0.92,,2013-07-02 16:01:00,
2013-07-02 12:33:00,71.0,70.0,30.10,SE,140,2.0,7.0,97,0.13,,,0.99,,2013-07-02 16:33:00,
2013-07-02 13:02:00,72.0,71.0,30.10,South,180,0.0,4.0,98,0.11,,,1.03,,2013-07-02 17:02:00,
2013-07-02 13:43:00,72.0,71.0,30.09,SSE,164,1.0,5.0,98,0.04,,,1.06,,2013-07-02 17:43:00,
2013-07-02 14:02:00,73.0,72.0,30.09,SSE,158,1.0,5.0,98,0.03,,,1.06,,2013-07-02 18:02:00,
2013-07-02 14:43:00,73.0,72.0,30.09,South,176,1.0,7.0,97,0.01,,,1.07,,2013-07-02 18:43:00,
2013-07-02 14:53:00,73.0,72.0,30.10,South,176,0.0,7.0,97,0.01,,,1.07,,2013-07-02 18:53:00,
2013-07-02 15:34:00,73.0,72.0,30.10,SSE,151,3.0,6.0,97,0.03,,,1.09,,2013-07-02 19:34:00,
2013-07-02 15:43:00,73.0,72.0,30.10,SSE,156,0.0,7.0,97,0.03,,,1.09,,2013-07-02 19:43:00,
2013-07-02 15:53:00,73.0,72.0,30.09,South,170,1.0,6.0,97,0.02,,,1.09,,2013-07-02 19:53:00,
2013-07-02 16:43:00,74.0,73.0,30.09,SE,144,0.0,1.0,97,0.00,,,0.65,,2013-07-02 20:43:00,
2013-07-02 17:03:00,74.0,73.0,30.09,SSE,156,0.0,1.0,96,0.00,,,0.65,,2013-07-02 21:03:00,
2013-07-02 17:44:00,74.0,73.0,30.09,SSE,164,0.0,3.0,96,0.00,,,0.65,,2013-07-02 21:44:00,
2013-07-02 17:52:00,74.0,73.0,30.08,South,174,0.0,4.0,96,0.00,,,0.65,,2013-07-02 21:52:00,
2013-07-02 18:01:00,74.0,73.0,30.08,SSE,164,0.0,1.0,96,0.00,,,0.65,,2013-07-02 22:01:00,
2013-07-02 18:43:00,74.0,73.0,30.07,South,177,0.0,5.0,96,0.00,,,0.65,,2013-07-02 22:43:00,
2013-07-02 18:53:00,74.0,73.0,30.08,SSE,152,1.0,4.0,96,0.00,,,0.65,,2013-07-02 22:53:00,
2013-07-02 19:01:00,74.0,73.0,30.08,SSE,157,1.0,4.0,96,0.00,,,0.65,,2013-07-02 23:01:00,
2013-07-02 19:12:00,74.0,73.0,30.08,SSE,153,1.0,6.0,96,0.01,,,0.66,,2013-07-02 23:12:00,
2013-07-02 19:22:00,74.0,73.0,30.09,SSE,160,1.0,4.0,96,0.01,,,0.66,,2013-07-02 23:22:00,
2013-07-02 19:33:00,74.0,73.0,30.09,SSE,159,0.0,2.0,96,0.01,,,0.66,,2013-07-02 23:33:00,
2013-07-02 19:44:00,74.0,73.0,30.09,SSE,158,0.0,5.0,96,0.01,,,0.66,,2013-07-02 23:44:00,
2013-07-02 19:52:00,74.0,73.0,30.09,SSE,152,0.0,4.0,96,0.01,,,0.66,,2013-07-02 23:52:00,
2013-07-02 20:01:00,74.0,73.0,30.09,South,176,0.0,5.0,96,0.01,,,0.66,,2013-07-03 00:01:00,
2013-07-02 20:33:00,74.0,73.0,30.10,SSE,159,0.0,2.0,97,0.00,,,0.66,,2013-07-03 00:33:00,
2013-07-02 20:44:00,74.0,73.0,30.10,SSE,160,0.0,4.0,97,0.00,,,0.66,,2013-07-03 00:44:00,
2013-07-02 20:52:00,74.0,73.0,30.10,SSE,160,0.0,2.0,97,0.00,,,0.66,,2013-07-03 00:52:00,
2013-07-02 21:01:00,74.0,73.0,30.10,SSE,164,0.0,4.0,97,0.00,,,0.66,,2013-07-03 01:01:00,
2013-07-02 21:57:00,73.0,72.0,30.11,SSE,153,0.0,3.0,97,0.00,,,0.63,,2013-07-03 01:57:00,
2013-07-02 22:05:00,73.0,72.0,30.12,SSE,153,0.0,1.0,97,0.00,,,0.63,,2013-07-03 02:05:00,
2013-07-02 22:14:00,73.0,72.0,30.12,SSE,153,0.0,0.0,97,0.00,,,0.63,,2013-07-03 02:14:00,
2013-07-02 22:28:00,73.0,72.0,30.12,SSE,153,0.0,0.0,97,0.00,,,0.55,,2013-07-03 02:28:00,
2013-07-02 22:39:00,73.0,72.0,30.12,SSE,153,0.0,1.0,98,0.00,,,0.55,,2013-07-03 02:39:00,
2013-07-02 22:56:00,73.0,72.0,30.13,SSE,153,0.0,2.0,98,0.00,,,0.55,,2013-07-03 02:56:00,
2013-07-02 23:36:00,73.0,72.0,30.12,SSE,153,0.0,3.0,98,0.01,,,0.54,,2013-07-03 03:36:00,
2013-07-02 23:57:00,73.0,72.0,30.12,SSE,155,0.0,0.0,98,0.01,,,0.54,,2013-07-03 03:57:00,